Location: Yellowknife
(62.4500°N, 114.3500°W)
Time: 23:36:44
(UTC-07:00)

Envisat - Pass Details

Date: 06 October 2023
Orbit: 762 x 764 km, 98.3° (Epoch: 02 December)

Event Time Altitude Azimuth Distance (km) Brightness Sun altitude
Rises 06:28:34 0° 18° (NNE) 3,249 6.7 -11.1°
Reaches altitude 10° 06:30:54 10° 15° (NNE) 2,318 5.8 -10.9°
Maximum altitude 06:35:54 59° 298° (WNW) 887 3.1 -10.3°
Drops below altitude 10° 06:40:54 10° 219° (SW) 2,304 5.1 -9.7°
Enters shadow 06:43:09 - 216° (SW) 3,204 5.8 -9.5°
